Regional Weather Roundup
Issued by NWS

Home | Current Version | Previous Version | Graphics & Text | Print | Product List | Glossary On
Versions: 1 2 3 4 5 6 7 8 9 10 11 12 13 14 15 16 17 18 19 20 21 22 23 24 25 26 27 28 29 30 31 32 33 34 35 36 37 38 39 40 41 42 43 44 45 46 47 48 49 50
000
ASUS43 KLMK 291702
RWRKY
KENTUCKY REGIONAL WEATHER ROUNDUP
NATIONAL WEATHER SERVICE LOUISVILLE KY
100 PM EDT FRI AUG 29 2014

NOTE "FAIR" INDICATES FEW OR NO CLOUDS BELOW 12,000 FEET
WITH NO SIGNIFICANT WEATHER AND/OR OBSTRUCTIONS TO VISIBILITY.

KYZ001>023-026-027-061>063-070>075-291800-
WESTERN AND SOUTH CENTRAL KENTUCKY

CITY           SKY/WX    TMP DP  RH WIND       PRES   REMARKS
PADUCAH        SUNNY     90  70  51 S7        29.98F HX  95
HENDERSON      MOSUNNY   90  72  55 SW5       29.99F HX  96
OWENSBORO      NOT AVBL
HOPKINSVILLE   SUNNY     90  68  48 S8        30.01F HX  93
BOWLING GREEN  SUNNY     90  62  39 SW10      30.03F HX  90
GLASGOW        SUNNY     88  65  46 S5        30.05F
$$

KYZ024-025-028>034-038-045-046-053-291800-
NORTH CENTRAL KENTUCKY

CITY           SKY/WX    TMP DP  RH WIND       PRES   REMARKS
LOUISVILLE/SDF MOSUNNY   87  72  60 MISG      30.03F HX  93
LOUISVILLE/LOU MOSUNNY   86  73  65 S8        30.04F HX  93
FORT KNOX      SUNNY     88  71  56 VRB5      30.03S HX  93
$$

KYZ035>037-039>044-047>052-055>060-089>105-291800-
NORTHEAST KENTUCKY

CITY           SKY/WX    TMP DP  RH WIND       PRES   REMARKS
LEXINGTON      SUNNY     87  71  58 VRB5      30.08F HX  93
COVINGTON      MOSUNNY   84  63  49 SE10      30.08F
FRANKFORT      SUNNY     86  71  60 S7        30.06F HX  91
$$

KYZ054-064>069-076>088-106>120-291800-
SOUTHEAST KENTUCKY

CITY           SKY/WX    TMP DP  RH WIND       PRES   REMARKS
JACKSON        SUNNY     84  70  62 CALM      30.11F
LONDON         PTSUNNY   86  69  56 SW6       30.10F HX  90
SOMERSET       SUNNY     86  66  51 CALM      30.09F
MIDDLESBORO    SUNNY     86  71  60 SE5       30.10F HX  91
MONTICELLO     MOSUNNY   90  68  48 W6        30.09F HX  94
$$



USA.gov is the U.S. government's official web portal to all federal, state and local government web resources and services.